Theta_e
310 310 310 310 314 317 321 321 317 321 322 318 321 319 317 321 323 317 319 322 316 333 347 347 350 354 353 354 356 354 353 356 356 353 351 350 347 348 346 344 347 346 347 344 343 340 336 336 335 337 336 333 333 329 323 318 317 322 330 337 339 340 340 341 342 342 342 343 342 342 342 342 342 342 343 343 343 343 342 342 342 342 342 342 342 341 340 340 340 339 338 338 337 337 337 337 337
310 310 310 313 317 317 321 323 322 322 320 316 319 321 319 322 322 318 320 317 319 341 351 348 350 351 350 351 353 353 354 353 349 352 352 348 348 348 346 346 346 346 346 344 343 340 336 336 335 336 337 333 333 330 325 320 318 322 331 337 339 339 339 340 341 342 343 342 342 342 342 342 342 342 343 343 343 342 342 343 343 342 342 342 341 341 341 340 339 338 338 336 336 336 336 336 336
310 310 311 317 319 319 325 324 322 320 316 314 316 321 321 320 320 318 319 320 332 346 349 349 354 352 350 360 360 356 356 351 349 351 351 349 349 348 347 346 345 347 345 345 344 339 336 335 335 336 336 334 333 331 326 321 319 322 329 337 339 339 339 340 341 342 342 342 342 342 342 342 342 343 343 343 343 343 343 343 342 342 342 342 341 341 341 339 339 338 337 335 334 335 335 334 334
309 312 312 319 322 324 331 327 328 322 314 316 314 319 325 320 319 317 323 335 342 344 347 353 360 354 355 366 358 353 353 350 350 350 350 349 349 349 348 346 347 347 346 346 344 339 336 334 334 336 336 335 334 331 326 321 323 327 332 337 338 338 339 339 341 342 342 342 342 342 342 342 342 343 343 342 343 343 342 343 342 342 342 342 341 341 340 339 339 338 336 335 334 333 332 331 330
310 314 313 318 324 325 327 324 329 321 312 319 315 320 329 320 318 317 326 338 339 342 349 356 360 355 353 356 352 353 353 349 350 348 350 349 349 348 347 348 348 347 346 346 344 339 336 334 334 335 335 335 333 331 326 322 328 333 334 337 338 338 339 339 341 341 342 342 342 342 342 342 342 342 342 342 342 342 342 342 342 342 341 341 340 339 339 339 339 338 337 335 331 330 329 328 328
311 315 314 315 318 319 320 318 322 319 315 321 318 324 328 318 318 317 323 332 342 354 358 360 359 356 355 352 350 351 350 350 350 348 349 349 350 348 348 349 347 347 346 345 343 338 336 335 334 335 335 335 334 331 327 324 331 335 335 337 338 338 339 339 341 342 341 342 342 342 343 343 342 342 342 342 342 342 341 341 341 341 340 340 339 337 338 338 337 336 335 333 329 326 326 326 328
312 315 318 318 317 317 322 322 321 321 319 320 320 324 321 317 317 317 322 321 338 360 359 359 354 354 358 354 353 349 347 350 349 348 349 349 350 348 349 348 347 347 345 345 342 338 338 336 334 335 335 335 335 333 328 327 332 334 334 336 337 339 340 340 341 342 342 342 342 342 343 343 342 342 342 341 341 341 340 340 340 340 340 339 338 336 334 334 334 333 333 331 327 325 326 328 330
315 317 320 323 323 319 322 322 319 321 319 317 317 321 320 318 317 316 321 315 332 359 356 355 352 357 359 352 355 351 346 348 347 348 349 349 349 348 348 347 346 346 345 345 341 340 340 338 337 337 337 336 335 334 330 331 333 332 333 334 336 339 340 339 341 342 342 342 342 342 342 342 341 341 341 341 340 340 339 339 339 339 339 338 337 335 333 331 330 328 328 326 324 324 327 329 331
315 317 318 321 322 318 319 319 316 317 317 316 314 318 321 319 318 316 320 318 332 357 356 355 355 360 357 350 354 349 345 347 347 348 348 348 348 348 347 346 345 345 345 344 342 342 341 339 338 339 339 337 336 335 333 334 334 333 333 334 336 339 340 339 340 342 342 342 342 342 342 341 341 341 340 340 340 339 338 338 338 338 337 337 336 333 331 329 327 326 323 322 322 324 328 330 331
316 317 318 320 319 317 318 317 316 315 316 317 314 317 318 316 318 318 318 315 332 357 358 355 355 357 355 352 353 349 347 346 347 348 348 348 347 347 346 346 345 345 344 342 343 343 342 340 339 340 340 338 337 336 335 333 333 332 330 332 334 337 340 340 339 341 341 342 342 342 341 340 340 340 339 339 337 336 335 335 336 335 333 332 331 328 326 325 325 324 322 320 321 325 328 330 331
322 320 318 319 318 316 316 316 318 318 317 316 315 315 315 314 314 318 317 319 346 362 357 355 355 353 353 353 352 348 346 346 347 347 346 347 346 346 346 345 345 344 343 342 343 343 342 341 340 339 339 338 336 335 334 332 332 330 327 328 331 334 338 339 339 340 341 342 341 341 340 340 340 339 338 335 332 331 330 330 331 331 327 325 325 325 325 324 323 322 320 320 321 324 328 330 331
323 320 320 322 320 318 317 317 319 321 320 316 316 316 316 315 314 317 314 325 357 363 356 357 354 352 354 354 351 345 345 346 346 346 346 346 345 345 344 344 344 343 343 343 343 342 342 342 341 340 339 337 336 335 334 334 333 329 328 328 329 334 337 338 339 340 341 341 341 341 340 340 340 339 337 335 333 333 331 329 327 327 325 324 326 327 326 324 322 320 319 319 321 324 327 330 331
325 319 320 320 319 319 317 317 319 323 324 319 317 317 316 314 315 318 314 332 360 361 356 355 350 352 353 353 350 345 344 345 345 346 345 345 345 344 343 343 343 343 343 342 342 342 342 342 341 340 340 338 337 337 336 335 332 330 331 330 331 335 337 339 339 340 340 340 340 340 340 340 340 339 338 337 336 335 334 332 329 327 325 326 327 328 326 322 319 318 318 319 321 323 327 330 331
324 320 320 317 315 317 315 315 318 318 319 319 317 315 317 317 316 317 325 347 359 356 353 351 349 354 355 352 351 347 345 345 345 345 344 345 344 343 343 343 342 343 342 342 341 342 342 341 341 341 340 339 338 337 336 334 333 332 331 331 333 334 337 338 338 339 340 340 340 340 340 340 339 338 337 337 336 335 335 335 332 328 326 326 328 328 328 322 317 316 317 319 321 323 328 331 332
319 320 321 318 314 315 314 315 316 315 316 318 316 317 332 339 323 318 334 354 354 349 351 348 347 356 357 353 353 348 345 345 345 344 344 343 342 342 342 342 342 342 341 341 342 341 341 341 340 340 340 339 337 336 335 333 333 333 331 332 333 332 335 337 338 338 338 339 338 338 339 338 338 337 337 336 335 335 334 334 334 331 327 327 328 328 328 324 316 314 316 319 321 323 328 331 332
317 320 320 316 314 314 314 314 315 315 316 318 315 317 344 356 337 331 341 350 351 350 355 353 349 354 353 351 351 346 345 346 345 344 343 343 342 342 342 341 342 341 341 341 342 341 341 340 340 340 339 337 334 332 331 331 333 332 332 333 332 332 335 335 336 337 337 338 337 337 337 337 336 335 336 335 335 335 334 334 334 332 329 328 329 328 329 327 318 313 315 318 320 324 329 331 332
316 321 320 315 314 314 314 315 314 315 316 318 317 313 336 357 350 348 349 349 353 354 358 355 350 350 350 350 348 345 346 346 344 344 343 343 343 342 343 343 342 341 341 341 341 341 340 340 340 339 338 334 331 329 329 332 333 332 332 332 331 334 335 333 334 335 336 337 337 337 336 336 334 334 335 334 335 335 334 334 334 333 330 329 330 329 329 328 322 313 313 318 320 325 329 331 333
318 322 320 317 316 314 317 318 315 316 315 316 315 310 328 354 354 351 352 353 353 353 355 352 350 348 347 348 346 346 346 345 344 344 343 343 343 343 344 343 342 342 341 341 341 341 340 339 339 338 336 332 330 331 331 333 333 331 332 331 332 334 334 333 333 334 335 335 336 336 335 334 334 334 333 332 333 333 333 334 335 333 330 328 329 330 330 329 325 315 313 317 321 326 330 331 333
321 321 318 319 318 314 316 317 316 316 314 315 316 310 326 352 353 351 354 355 354 355 355 351 352 350 347 347 346 346 345 345 344 343 343 343 342 343 342 342 342 342 341 340 341 341 339 339 339 337 334 332 332 332 332 334 332 331 331 332 334 335 334 333 333 334 334 334 334 334 333 333 333 331 330 331 330 329 331 334 335 334 331 329 328 330 330 330 327 317 312 317 322 327 330 332 333
320 319 318 322 319 314 314 315 315 315 313 314 314 313 333 351 349 353 355 353 355 356 355 354 354 351 350 348 346 346 345 345 344 343 343 342 342 342 341 341 341 342 341 340 340 339 339 339 338 335 334 332 332 333 333 334 332 331 332 334 334 335 334 333 333 333 333 334 334 334 333 332 331 330 333 335 333 330 330 331 333 332 331 330 328 329 330 329 329 322 313 317 323 328 331 332 333
317 318 322 324 318 315 316 315 315 315 313 314 314 318 339 349 347 354 353 355 358 353 353 355 354 352 351 349 346 345 344 344 343 343 343 342 342 341 341 341 341 341 340 340 339 339 339 338 337 335 334 333 332 333 334 334 332 332 333 334 334 334 335 334 333 332 332 333 333 332 332 334 335 335 336 337 336 335 334 334 333 330 329 330 329 328 330 330 330 325 316 316 324 329 332 332 332
315 318 322 322 316 314 317 316 316 315 312 314 316 314 329 346 353 354 351 356 358 351 350 350 349 349 349 348 346 345 344 344 343 343 343 342 341 340 340 340 340 339 339 339 338 338 338 337 337 335 334 334 333 333 335 335 334 333 334 334 334 334 334 333 333 333 333 333 332 331 333 336 338 338 338 338 338 338 337 337 336 332 328 328 329 328 329 329 330 328 320 318 325 330 332 332 331
317 319 319 319 316 315 315 315 314 313 313 315 315 316 333 353 357 352 354 358 356 351 349 347 346 346 347 346 345 345 345 344 343 343 342 341 340 339 339 338 339 338 338 338 337 338 338 337 336 334 334 335 335 334 335 336 334 332 334 334 333 334 334 333 333 333 333 333 333 332 333 335 337 338 338 338 339 338 338 337 337 335 331 327 327 328 328 328 329 329 325 322 327 331 331 331 331
317 319 319 318 316 315 315 314 313 312 312 312 313 325 347 359 355 353 358 357 352 351 348 345 345 345 346 345 345 345 344 343 342 342 341 340 340 339 338 338 338 338 337 336 336 338 337 337 335 334 335 335 335 335 335 336 334 333 334 334 333 334 333 333 333 333 332 332 333 334 335 336 336 337 337 337 338 338 339 338 337 337 336 332 328 327 328 328 328 329 328 326 329 331 331 331 331
315 317 318 317 316 316 315 314 313 312 311 320 333 343 352 355 352 352 355 353 350 348 346 345 345 345 345 345 345 344 343 342 340 340 340 339 339 338 338 338 338 337 337 336 337 337 337 336 336 336 336 335 335 334 335 336 334 333 334 334 333 333 333 332 332 331 331 330 332 333 335 336 336 336 336 336 337 337 338 338 338 337 337 336 332 328 326 327 327 328 328 328 329 330 330 330 330
316 316 317 315 316 315 315 314 313 314 313 333 357 356 353 352 351 351 349 350 350 346 346 345 344 346 345 345 344 342 343 341 339 339 339 339 338 338 338 339 338 338 338 339 337 337 337 336 337 338 338 337 335 333 334 334 334 334 334 335 335 334 333 333 333 332 331 331 331 333 334 336 336 336 336 336 337 337 337 337 338 337 337 337 337 333 329 327 327 327 328 329 329 330 330 330 331
315 316 315 314 316 312 314 314 313 315 312 338 365 358 349 349 352 355 348 349 349 346 348 346 345 347 345 344 343 341 341 340 340 340 339 339 338 338 338 339 339 339 340 340 338 337 337 337 338 339 339 339 337 335 333 333 333 334 334 335 335 335 335 335 335 335 334 334 335 336 337 337 337 338 338 337 337 337 337 337 337 338 338 337 338 337 334 332 330 328 328 328 329 330 330 331 332
312 313 312 314 315 312 314 312 314 314 311 336 357 349 336 339 355 358 347 347 350 348 348 346 346 346 345 344 342 341 341 340 340 340 340 339 339 338 338 339 340 340 341 341 340 339 337 337 339 339 339 339 340 339 337 335 334 334 335 335 335 336 337 337 337 337 337 337 338 338 338 338 338 338 338 337 337 337 337 337 338 338 338 338 338 337 337 335 334 332 330 329 328 328 329 331 332
310 311 310 316 317 314 315 313 316 312 316 338 349 342 332 334 352 353 343 344 349 351 350 348 348 346 344 344 342 342 341 340 340 340 340 339 339 339 339 340 340 340 341 342 341 340 339 338 338 338 339 340 340 340 340 339 338 337 337 337 337 337 338 338 338 338 338 338 338 338 338 338 338 338 337 337 336 336 336 337 337 338 338 338 338 337 337 337 336 335 333 332 330 329 329 330 331
311 310 310 316 316 316 316 312 314 310 321 340 336 332 333 337 346 344 338 340 345 349 348 346 347 342 341 343 343 342 340 339 339 339 340 339 339 340 340 340 340 340 341 341 341 340 339 338 337 337 338 340 341 341 340 340 340 339 339 339 338 338 338 338 339 338 338 338 337 338 338 338 338 337 336 336 336 336 336 336 336 337 338 338 337 337 337 337 336 336 335 334 333 333 331 331 332
312 310 314 317 312 316 320 314 315 311 317 328 325 326 337 344 345 341 336 337 341 343 340 340 340 336 338 341 342 341 339 338 338 338 339 339 340 340 341 341 340 340 340 340 340 340 340 338 338 338 339 340 340 341 341 340 340 340 340 340 339 339 339 339 339 338 338 337 337 338 339 338 337 336 335 335 335 335 335 335 336 336 337 337 337 337 337 337 337 336 336 335 335 335 334 334 333
317 311 316 317 310 317 323 316 316 314 312 318 320 328 342 350 345 340 337 336 338 339 337 337 335 334 337 340 339 340 338 337 336 337 338 339 340 341 342 341 341 341 340 341 341 340 341 340 340 341 340 341 340 341 341 341 340 339 339 339 339 339 339 339 338 338 338 338 337 338 338 337 336 336 336 335 334 335 335 335 335 336 336 336 337 337 337 337 337 337 336 336 336 336 335 335 334
321 313 318 318 311 314 317 314 314 315 313 314 320 334 345 352 347 343 340 337 337 338 337 335 334 335 337 339 339 339 338 337 337 336 337 339 340 341 342 341 342 342 341 341 341 341 341 341 341 341 341 341 341 340 340 339 338 338 338 338 339 339 339 339 339 339 339 338 337 337 337 336 336 336 336 335 335 334 334 335 335 335 336 337 337 336 336 337 337 336 336 336 336 336 336 335 335
316 313 317 317 313 314 313 316 314 313 317 317 331 350 349 347 347 345 343 340 339 339 338 336 335 337 337 339 340 339 339 338 337 336 336 337 339 340 341 341 342 342 342 341 340 341 341 341 341 340 341 341 340 339 338 339 338 338 339 339 339 339 340 339 339 338 338 337 337 336 336 336 336 336 335 335 334 334 334 334 334 335 336 336 336 336 336 336 336 336 335 335 335 335 335 335 335
317 315 316 314 313 312 312 317 311 314 335 335 339 353 345 342 346 342 339 339 337 337 338 337 337 339 338 339 341 340 340 339 337 336 336 337 337 338 340 341 341 341 342 341 341 342 341 342 341 340 341 340 340 339 339 339 338 339 339 339 338 338 339 338 338 338 337 337 336 336 335 335 335 335 335 335 334 334 334 334 334 335 335 336 336 336 336 335 335 335 334 334 334 334 334 334 334
318 320 322 318 314 313 314 317 314 325 355 350 340 347 342 342 343 335 333 335 334 334 335 338 340 341 340 341 342 341 341 339 337 336 337 337 337 338 339 339 340 341 341 341 341 341 341 341 341 341 340 340 341 341 340 340 340 339 339 338 338 338 338 338 338 338 337 337 336 335 335 335 335 335 335 335 334 333 333 334 334 335 335 335 334 334 335 334 334 334 334 334 334 333 333 333 333
315 317 319 316 313 315 314 311 316 332 353 345 339 344 341 340 337 332 333 334 333 333 337 343 344 343 343 343 342 341 341 338 336 336 336 336 336 337 337 337 338 339 339 340 340 340 339 340 341 340 340 340 341 340 339 339 339 339 339 339 338 338 338 338 338 337 337 337 336 336 336 336 336 335 335 334 334 333 333 333 333 333 334 333 333 333 334 334 333 333 333 333 332 331 331 331 331
313 314 314 313 312 314 311 311 323 338 349 343 340 344 341 338 334 331 334 335 334 334 338 342 339 339 343 342 341 340 338 336 334 334 333 333 334 334 335 335 336 336 337 338 338 338 339 339 339 339 339 339 339 338 338 338 338 338 339 339 338 338 338 338 337 336 336 336 336 336 336 335 335 335 334 333 333 333 332 332 332 332 332 332 333 333 333 332 331 332 331 331 330 330 330 331 331
313 313 313 313 314 313 311 321 336 343 346 344 341 342 341 336 334 333 334 335 335 334 335 336 333 334 338 340 340 338 336 335 333 332 331 331 331 332 332 332 332 333 334 335 335 336 337 337 337 337 337 338 337 337 337 337 338 338 338 338 338 337 336 335 335 335 335 334 334 334 334 334 334 334 334 333 333 332 332 332 332 332 332 332 332 331 331 330 330 330 330 330 330 330 331 331 331
313 314 314 314 313 311 312 328 340 340 342 343 340 341 340 337 336 335 334 334 335 335 334 334 334 334 336 337 336 335 334 334 332 331 330 329 330 330 330 329 330 332 332 332 334 335 335 335 336 336 336 336 336 337 337 337 337 338 338 337 336 336 334 334 334 334 333 333 333 333 333 333 333 333 332 332 332 332 332 331 331 331 330 330 331 330 329 329 329 329 329 330 330 330 331 331 331
312 313 316 315 312 316 324 335 341 340 340 340 340 342 342 339 339 338 335 335 335 335 334 335 335 333 334 334 334 333 332 331 331 330 329 328 328 327 327 327 328 329 329 330 332 333 333 333 334 334 335 335 335 336 336 336 337 337 336 335 335 334 333 333 333 332 332 332 331 331 331 331 331 331 331 331 331 331 331 331 330 330 329 329 329 329 328 328 329 329 329 330 330 330 330 331 331
311 312 314 314 321 336 340 339 342 342 342 340 339 344 345 340 340 339 337 336 335 335 333 335 336 332 331 332 332 332 330 329 329 328 327 326 326 325 325 325 326 326 326 328 330 330 331 331 332 333 333 333 334 334 334 334 334 335 334 333 332 331 330 329 328 328 329 329 329 329 329 329 330 330 330 329 329 330 330 329 329 329 329 330 329 329 328 328 328 328 328 329 330 330 330 330 331
312 313 312 314 333 346 343 340 345 343 341 338 333 340 345 340 340 340 337 337 336 333 333 334 335 332 331 331 330 330 329 328 327 326 326 325 325 324 324 324 324 324 325 326 328 328 328 329 329 330 330 330 331 332 333 333 333 332 331 330 329 327 326 325 325 326 326 326 326 327 328 328 328 328 328 328 328 328 329 329 329 329 329 329 329 329 329 328 328 327 327 328 329 329 330 331 331
313 312 309 315 335 346 343 340 347 343 335 334 332 339 346 342 341 340 335 337 336 333 333 334 333 332 331 330 329 329 327 326 325 325 324 324 324 323 323 323 323 323 324 325 325 326 326 326 327 327 327 327 328 329 330 330 331 329 328 328 326 324 324 324 324 324 324 324 325 325 325 325 325 326 326 326 326 326 327 328 328 328 328 328 328 328 328 328 328 328 328 328 328 328 329 329 331
314 311 309 312 323 336 340 336 340 339 331 334 337 339 344 343 340 338 335 337 337 335 334 333 332 331 330 330 328 327 326 325 324 324 323 323 323 322 322 321 322 322 323 323 323 323 324 324 324 324 324 324 325 325 326 327 327 327 326 325 324 322 322 322 322 323 322 323 323 323 323 323 323 323 323 324 323 324 325 325 326 326 326 326 325 326 326 327 327 328 328 328 328 328 328 328 329
311 308 309 311 314 322 329 331 336 336 331 335 339 340 344 344 341 339 338 338 337 335 335 334 332 330 330 329 326 325 325 324 323 323 323 322 321 320 320 320 321 322 321 321 321 321 322 322 323 323 322 322 321 322 323 323 323 324 323 323 322 321 321 321 321 321 320 321 321 321 321 321 321 320 320 321 321 321 322 323 323 324 323 322 323 323 324 324 324 326 327 327 328 328 328 328 328
308 308 310 312 319 322 326 334 335 332 334 336 337 340 341 341 340 340 339 338 335 335 337 335 332 330 329 327 325 324 323 323 322 321 321 321 320 319 319 319 319 320 321 320 319 320 320 320 321 321 320 319 319 319 320 319 319 320 320 320 320 319 319 319 319 318 317 317 317 318 318 318 318 317 317 317 318 319 319 320 320 321 320 320 320 321 321 321 321 323 324 324 325 325 326 326 327
308 313 313 312 320 321 322 329 326 324 329 329 332 338 334 334 339 338 338 338 334 334 337 335 332 330 328 325 324 323 322 322 321 321 321 320 320 319 318 318 318 320 320 318 318 319 319 319 320 319 318 318 318 318 318 317 317 316 317 317 317 316 316 316 315 314 313 313 313 314 314 314 314 314 314 314 314 315 316 316 317 318 317 317 318 318 318 318 319 320 321 321 321 322 322 323 323
309 314 314 313 316 314 316 322 321 321 324 320 326 334 332 335 338 334 337 338 333 333 335 333 331 329 327 325 323 322 321 321 321 321 320 320 320 319 318 318 317 318 318 318 318 318 317 318 318 318 317 317 317 317 317 316 315 314 314 314 314 314 314 313 312 311 310 310 310 310 310 310 311 311 310 310 311 311 312 313 314 313 313 313 314 315 315 316 317 317 318 318 318 318 319 319 320
309 311 312 314 316 313 314 319 318 319 322 320 325 333 334 338 336 331 334 337 334 334 332 330 329 327 325 324 322 321 320 320 320 320 319 319 319 319 318 317 317 317 317 317 316 316 316 316 316 316 315 315 316 316 315 314 313 313 312 312 312 312 311 310 309 309 308 308 307 307 307 307 307 307 306 307 307 308 309 310 310 310 309 310 311 312 313 314 314 314 314 315 316 316 316 317 318
308 310 311 315 320 317 315 319 318 319 324 325 327 333 337 339 335 328 330 334 332 332 329 327 326 324 323 322 321 321 320 320 320 319 319 318 318 317 317 316 316 316 316 316 316 316 316 315 315 314 314 314 314 314 313 313 311 311 311 311 310 310 309 308 307 307 306 306 306 305 305 305 305 304 304 304 305 306 307 307 307 307 307 307 307 308 309 309 310 311 311 312 313 313 314 315 316
308 310 311 311 317 324 321 319 324 328 331 331 330 332 333 334 332 327 329 333 331 329 327 326 324 322 322 321 321 320 320 319 319 318 318 317 317 316 315 315 315 316 315 315 315 315 315 314 314 313 313 312 312 312 311 311 310 310 310 309 308 308 307 307 306 305 305 304 304 303 303 303 303 303 303 303 304 304 305 305 304 303 303 304 304 304 304 305 306 306 307 308 309 310 311 312 312
311 309 311 310 315 328 323 314 321 328 326 327 329 331 332 332 332 331 332 334 331 329 328 326 324 322 322 321 320 320 319 319 318 318 317 316 316 315 314 314 314 314 314 314 314 314 313 313 313 312 312 311 311 310 310 310 309 309 308 308 307 306 306 305 304 304 304 303 303 302 301 301 302 302 302 302 302 302 302 302 301 300 301 301 302 302 302 303 303 304 304 304 304 305 306 307 308
312 309 311 311 312 323 325 318 323 326 321 325 327 330 335 336 336 334 333 334 332 330 327 325 324 323 322 321 320 319 319 319 318 317 316 315 315 314 313 314 314 313 314 313 313 313 312 312 312 312 311 310 310 309 309 309 308 308 307 307 306 305 304 303 303 303 303 302 301 301 300 300 300 300 300 300 300 300 300 299 299 299 299 299 300 300 300 301 301 302 302 302 302 301 302 303 304
311 311 311 314 314 316 320 321 321 321 324 333 332 329 332 336 336 335 334 333 332 329 327 325 324 323 322 320 319 319 318 318 317 317 316 315 313 313 312 312 313 313 313 312 312 312 311 311 311 311 310 309 309 308 308 307 307 306 306 306 306 305 304 303 303 303 302 302 301 300 300 300 300 299 299 299 299 299 299 298 298 298 298 298 298 298 299 299 300 300 300 300 300 299 300 301 302
309 311 309 314 317 314 315 319 321 323 328 335 337 331 330 333 333 333 333 331 330 328 326 325 323 322 320 319 319 318 318 317 317 316 315 314 312 312 311 312 312 312 312 311 311 311 310 310 310 309 308 308 308 307 307 306 306 305 305 305 305 304 304 303 303 302 302 302 301 300 300 300 299 299 299 299 298 298 298 297 297 297 297 297 297 297 297 298 298 298 298 297 297 297 298 299 300
309 311 310 311 313 313 314 317 321 328 333 335 337 335 334 333 330 331 332 330 328 326 325 323 321 320 319 318 318 317 317 317 316 315 314 312 311 311 311 311 312 312 311 310 310 310 309 309 309 308 308 307 307 306 306 306 305 305 304 305 304 304 304 303 302 302 302 302 301 300 300 300 299 299 299 298 298 297 297 297 296 296 296 296 296 296 296 297 297 297 297 297 296 297 297 298 299
309 312 312 312 315 316 315 315 318 328 336 336 336 340 339 333 329 330 331 328 326 324 323 322 320 319 318 318 317 317 317 316 315 314 313 311 310 310 310 311 311 310 310 309 309 309 309 308 308 308 308 307 306 306 305 304 304 304 304 304 303 303 303 302 302 302 302 301 300 299 299 299 298 298 297 297 296 296 296 296 296 296 295 295 295 295 296 296 296 297 297 297 296 296 297 297 298
Wind_Speed
10 10 9 8 8 6 4 4 1 3 2 0 2 2 4 4 1 3 4 5 5 3 3 3 4 5 6 6 8 8 5 2 4 4 3 3 12 22 17 20 26 24 24 22 22 24 23 21 18 16 14 13 12 12 13 13 14 17 18 16 16 17 18 17 17 17 18 17 17 17 17 16 16 16 16 16 15 15 16 15 15 15 14 14 14 14 14 14 14 15 15 15 15 15 14 13 13
9 8 8 6 7 4 1 3 2 2 2 1 3 3 4 2 3 6 5 4 4 1 3 4 7 9 9 10 9 6 6 5 3 3 2 8 16 17 15 22 27 25 24 22 23 24 24 21 18 16 14 13 12 12 12 13 14 16 17 15 16 17 17 17 17 17 17 17 17 16 16 16 16 16 16 15 15 15 15 14 14 14 14 14 13 13 13 13 14 15 14 14 14 14 13 13 12
9 7 7 3 4 4 2 3 1 1 2 3 5 4 3 3 5 6 5 6 5 4 1 1 5 5 6 7 5 4 2 2 4 3 5 14 14 13 18 24 27 24 23 22 23 24 24 21 18 16 14 13 12 12 12 13 14 16 17 16 17 17 16 16 16 17 17 16 16 15 16 15 15 15 15 15 15 15 14 14 13 14 14 13 13 13 13 13 13 14 13 13 12 12 12 12 12
8 7 6 2 2 4 4 3 2 4 3 4 5 5 4 4 4 5 4 4 5 1 2 2 4 3 4 7 4 4 4 2 4 4 6 12 14 18 22 25 26 22 22 21 22 24 24 21 18 16 14 13 12 12 12 13 13 15 16 17 16 16 16 16 16 17 16 15 15 15 15 15 15 15 15 15 15 14 14 14 13 12 13 13 13 13 13 13 13 12 12 11 11 10 10 10 10
7 5 5 3 2 1 3 2 2 4 5 4 3 6 5 4 1 4 3 1 2 2 2 2 3 2 4 5 2 2 5 5 4 4 6 10 16 22 23 24 24 21 22 20 21 23 23 21 18 16 15 13 12 12 12 13 13 15 16 17 16 16 16 15 16 16 15 15 14 14 14 14 14 14 14 14 14 13 13 13 12 12 12 12 13 13 12 12 12 11 10 10 9 9 9 9 9
5 4 6 6 2 1 3 2 2 3 6 5 4 6 2 2 3 3 5 4 2 3 3 3 3 2 4 3 2 3 4 4 4 5 7 12 18 22 23 23 21 20 20 19 21 23 22 20 18 17 15 14 13 12 12 12 14 15 16 17 16 16 16 15 16 16 15 14 14 14 14 14 14 14 13 13 13 12 12 12 12 11 11 12 12 12 11 11 10 10 9 7 7 7 8 9 8
4 2 4 5 2 1 3 3 5 5 5 5 5 4 1 3 3 3 7 5 2 5 5 4 4 4 4 1 2 2 1 3 5 7 11 16 20 22 22 21 20 19 19 19 22 22 20 19 17 16 15 14 13 12 12 13 14 14 16 16 16 16 16 15 15 15 14 14 13 14 13 13 13 13 12 12 11 11 11 11 10 10 10 10 10 11 10 9 8 8 7 6 6 8 9 9 7
5 1 1 4 1 2 3 2 4 5 5 4 3 4 3 4 4 3 5 2 2 2 4 4 3 4 3 2 1 2 2 3 6 11 16 19 21 22 21 20 19 18 18 18 20 20 18 17 16 15 14 14 12 12 11 13 14 14 15 15 15 16 15 14 14 14 14 13 13 13 13 13 13 12 11 11 10 10 10 9 9 8 8 8 9 9 8 8 7 6 5 5 6 8 10 9 6
5 3 0 3 2 0 0 2 4 4 4 5 3 6 7 5 5 3 5 5 2 3 4 4 1 5 4 5 2 3 3 6 11 15 18 21 22 22 19 18 18 18 17 17 19 19 16 16 15 14 13 13 12 12 12 13 13 14 14 14 16 16 14 14 14 13 13 12 12 12 12 12 11 10 10 10 9 8 8 8 7 6 6 6 6 6 6 6 6 5 5 5 7 9 9 8 6
4 2 2 2 3 1 3 3 3 3 5 5 6 9 8 6 6 6 6 6 3 5 3 3 4 6 7 6 2 2 3 11 16 17 18 21 21 20 17 16 17 18 18 19 19 17 16 15 14 14 13 12 12 12 12 12 13 13 13 13 15 16 14 13 13 13 12 12 11 11 11 10 9 9 9 8 7 7 7 7 6 5 5 5 5 6 6 5 4 4 4 5 7 8 8 8 7
2 3 2 3 2 3 4 4 4 4 5 4 6 9 8 6 5 5 6 5 3 6 5 5 6 8 8 5 1 2 9 15 18 19 20 21 20 19 17 15 16 18 20 20 19 17 16 14 13 13 13 12 12 11 12 12 12 12 12 12 13 15 15 13 13 12 11 11 10 10 10 8 8 8 8 7 7 6 6 7 6 5 6 6 6 7 6 5 3 4 4 5 7 8 8 7 7
2 2 4 3 2 4 4 3 4 5 6 4 5 5 5 7 6 6 9 7 4 8 5 4 6 8 7 3 1 4 12 13 16 20 20 20 19 18 17 17 17 17 20 21 20 18 17 14 13 12 11 12 11 11 11 11 11 11 12 12 12 15 15 13 13 11 11 11 10 10 9 8 8 8 7 7 6 6 6 7 6 6 6 6 7 7 7 5 4 4 5 6 7 7 7 6 6
3 2 5 2 3 3 3 1 4 4 5 4 4 5 3 6 7 10 10 8 8 9 5 6 10 6 5 4 2 4 8 10 15 19 20 20 18 18 19 19 18 18 19 20 20 19 17 15 14 12 11 11 11 11 11 11 11 11 11 11 13 15 14 13 12 11 10 11 10 9 8 8 7 7 6 5 5 6 6 6 6 5 5 5 6 7 7 6 4 5 6 7 7 7 7 5 5
3 3 5 2 1 2 3 2 3 1 4 5 4 5 2 3 7 9 9 9 7 7 6 8 10 6 5 5 3 3 6 12 17 18 19 19 18 19 19 19 19 19 19 20 21 20 18 16 15 13 12 12 11 11 10 11 11 11 11 11 12 14 13 12 12 11 10 10 9 8 7 6 5 5 5 4 4 5 6 6 5 5 5 4 5 6 7 7 5 4 6 7 7 7 7 5 4
4 2 4 2 1 0 2 3 2 3 4 5 3 5 4 2 3 7 9 10 4 4 8 7 4 4 6 9 5 6 12 18 19 19 21 19 19 19 19 19 19 20 20 20 20 20 18 17 16 14 13 13 12 12 11 12 12 11 11 11 11 13 13 12 11 10 10 9 8 7 6 5 4 3 2 3 4 5 6 6 5 5 5 5 5 6 7 7 5 4 6 8 8 8 7 5 5
3 3 4 1 2 2 3 4 2 2 4 6 3 5 5 4 1 4 5 8 8 4 5 4 2 2 9 8 7 14 21 23 22 22 22 20 20 19 19 20 20 20 20 20 19 19 18 16 15 13 13 12 13 13 12 12 12 11 11 10 10 12 11 10 11 10 10 9 7 7 6 5 3 2 1 2 3 4 5 5 5 5 5 6 6 6 6 7 6 3 5 8 9 8 7 6 7
3 4 3 1 3 3 4 3 3 3 5 6 4 7 4 5 4 3 4 9 12 6 4 2 2 2 7 7 13 25 26 25 24 24 22 21 20 20 19 20 21 20 19 19 19 18 17 15 14 13 12 12 13 13 12 12 11 11 11 10 10 11 8 8 10 10 9 9 7 6 5 4 2 1 0 1 2 3 4 4 4 4 4 5 6 6 6 7 7 3 4 8 9 8 7 7 7
3 3 2 3 4 4 5 6 5 3 4 7 6 7 2 1 1 2 7 9 9 8 5 4 6 8 11 16 24 28 26 26 25 24 21 20 20 19 19 20 20 20 19 18 17 17 16 15 13 12 12 12 13 13 13 12 11 11 11 10 10 9 7 7 9 9 9 8 7 5 4 2 1 1 1 1 2 3 3 3 3 3 2 3 4 5 5 6 7 4 3 8 9 8 7 6 7
3 3 2 4 5 5 5 6 5 3 5 8 8 6 3 4 4 1 5 7 8 10 5 5 9 11 14 18 24 25 24 25 24 23 20 19 19 18 18 19 18 18 19 18 17 17 15 15 13 12 12 11 13 13 13 12 10 11 11 11 10 8 7 7 8 8 8 7 6 5 3 2 1 2 2 3 2 2 2 2 2 3 2 2 3 4 5 5 6 4 3 9 10 8 6 6 6
3 3 2 6 5 5 5 6 7 6 6 8 8 6 2 6 3 2 7 9 6 9 8 8 10 12 15 15 19 22 22 23 23 21 19 19 18 17 19 18 17 18 19 18 18 16 14 14 13 12 11 11 13 13 13 11 10 11 12 11 10 9 7 7 7 6 7 6 5 5 3 0 2 3 4 4 4 4 3 2 2 3 3 3 3 3 4 4 5 5 2 9 10 9 6 5 5
2 4 5 6 4 4 6 7 8 8 5 5 6 5 2 4 3 4 11 10 2 7 11 12 16 18 18 15 15 19 20 21 21 19 18 18 15 15 16 16 16 18 19 17 16 15 14 13 12 11 10 11 12 13 13 11 10 11 11 10 9 8 7 6 5 5 5 5 4 4 4 2 2 3 4 4 4 4 4 4 3 4 4 4 3 3 3 3 4 4 2 9 11 9 6 4 4
2 3 5 6 3 3 7 6 6 5 2 4 6 5 1 1 4 6 7 5 4 6 8 6 14 21 20 16 16 17 16 17 18 16 15 15 14 14 14 15 16 17 17 16 15 14 13 12 11 11 10 10 11 12 12 10 9 10 10 9 8 7 6 6 5 4 4 4 3 4 3 2 1 3 5 5 5 6 5 5 5 5 5 5 5 4 3 3 3 3 1 8 11 10 7 4 3
2 3 3 5 5 5 5 3 3 0 3 7 7 2 1 4 6 4 1 3 2 3 5 7 10 18 20 17 16 15 12 12 14 14 14 16 15 15 15 15 16 16 16 15 15 14 13 11 10 10 9 9 9 9 10 9 8 8 8 7 7 6 5 5 4 3 2 2 2 1 1 1 1 3 5 6 7 7 7 7 7 7 6 6 6 6 4 4 2 2 1 7 10 11 9 5 3
3 3 4 5 6 7 6 5 4 2 1 9 5 1 3 6 7 2 4 2 3 9 11 13 14 16 17 14 13 13 11 11 12 12 14 16 15 16 16 15 16 17 16 15 14 13 12 11 9 8 9 8 8 8 8 7 7 7 7 6 6 5 4 4 3 2 1 1 1 1 2 3 4 5 6 7 8 8 8 8 8 9 8 8 7 7 7 5 4 2 1 5 9 10 10 8 5
3 4 5 3 4 7 7 7 6 2 5 7 2 4 4 6 7 4 4 3 8 11 13 15 15 15 14 13 12 11 10 10 11 13 14 15 16 16 15 15 17 16 15 14 13 12 11 10 8 8 8 7 7 7 7 6 5 6 6 6 5 4 4 3 2 1 2 2 2 3 4 5 6 8 9 10 10 9 9 9 8 9 10 9 9 8 7 7 6 5 3 4 7 9 10 9 8
4 6 5 3 5 7 5 6 5 2 4 3 4 6 7 5 6 4 3 4 11 13 14 14 14 15 14 11 11 10 9 11 12 14 15 16 17 16 15 15 16 15 15 14 12 12 11 9 8 7 7 6 5 5 5 5 5 5 4 4 3 3 2 2 1 1 2 3 4 5 6 8 9 10 11 12 12 12 11 10 10 10 10 10 11 10 8 8 8 8 7 6 6 8 9 10 10
5 5 5 6 7 7 4 5 4 3 4 5 6 6 4 1 2 3 3 1 10 13 13 13 13 14 12 9 9 9 9 12 15 16 16 16 16 16 16 15 15 15 15 14 12 12 11 9 8 6 6 5 4 4 4 4 3 3 2 2 2 1 1 1 2 3 4 5 6 7 8 9 11 12 13 14 14 14 12 12 12 11 11 10 12 12 10 9 9 9 10 10 9 9 10 11 12
3 4 4 6 6 6 4 6 5 3 3 5 9 6 1 5 2 8 5 1 7 12 12 11 11 10 11 10 9 9 9 12 16 16 14 14 14 16 17 16 16 16 16 15 13 12 11 9 8 6 5 5 4 3 2 2 3 3 3 3 2 3 3 3 4 5 5 6 7 8 9 10 11 12 12 13 13 13 13 13 12 12 12 10 11 12 12 11 10 10 10 11 12 12 12 13 14
1 1 2 7 7 5 6 4 4 4 3 7 8 5 3 5 1 9 8 4 7 11 11 10 9 6 7 9 9 8 9 13 14 14 13 14 14 15 16 16 16 17 16 15 13 12 10 9 8 7 6 4 3 2 1 1 2 4 5 5 5 5 5 5 5 6 7 7 8 8 8 10 11 12 12 12 12 13 13 13 13 13 12 11 11 11 11 12 12 12 11 11 12 13 14 14 15
1 1 2 4 7 5 7 1 2 2 4 9 6 3 4 5 2 8 5 5 9 11 9 5 3 4 3 4 8 9 10 11 12 13 14 15 15 15 15 15 16 16 16 15 13 11 9 8 8 7 6 5 3 2 1 1 3 4 5 6 6 6 6 6 6 7 7 7 7 7 8 10 11 11 12 12 12 12 12 12 12 12 12 12 12 11 10 10 12 13 13 13 14 14 15 16 17
1 0 2 2 1 4 7 0 5 4 2 5 5 2 4 2 4 7 5 7 10 12 9 5 8 8 6 2 8 9 9 11 12 15 15 16 16 15 16 14 14 15 16 15 13 11 9 7 5 5 4 4 3 1 1 1 3 4 4 5 6 6 6 6 6 7 7 7 7 7 9 10 9 10 11 11 11 11 11 11 11 11 12 12 12 11 10 10 10 12 13 14 16 16 17 18 18
2 1 2 3 3 5 8 2 7 6 1 1 5 2 2 3 7 7 7 7 8 10 9 10 10 6 7 4 8 8 8 11 13 15 16 18 17 17 18 16 14 15 15 15 13 10 7 5 4 3 3 2 1 1 1 1 3 3 3 4 4 4 5 5 6 6 6 7 8 8 8 8 7 9 11 11 11 10 10 10 10 10 11 12 12 12 11 11 12 12 12 13 15 16 17 18 19
4 2 3 2 3 3 6 2 4 5 3 2 2 4 2 3 7 8 7 6 6 8 10 12 10 4 3 3 6 8 7 9 11 12 15 17 17 17 19 17 16 16 15 14 12 10 7 5 4 4 3 2 2 1 0 0 1 1 1 2 2 3 4 4 5 5 6 8 9 8 8 8 7 9 10 10 9 8 8 9 9 9 10 11 12 12 12 12 13 14 13 12 14 15 17 18 18
2 2 2 3 3 2 4 3 1 4 5 3 4 6 4 2 8 10 8 7 6 10 12 10 9 8 4 1 5 7 6 7 8 10 13 16 18 17 17 17 16 16 15 14 13 11 10 8 6 4 3 3 3 3 3 2 2 2 0 2 3 4 3 3 4 6 7 9 10 10 10 10 9 9 10 9 7 6 6 6 7 7 8 9 10 11 12 13 13 13 13 13 14 15 16 17 17
4 3 3 2 2 3 4 5 2 4 6 6 4 6 4 3 8 6 5 5 7 10 11 9 8 9 8 3 5 7 6 8 8 11 14 16 18 18 17 17 17 16 15 14 14 12 11 9 7 5 3 4 5 5 5 4 3 2 2 3 4 4 3 4 5 7 8 9 11 11 11 11 10 10 10 10 9 8 7 7 6 7 7 8 9 11 12 12 12 13 14 14 15 15 16 17 17
7 5 4 4 3 3 5 5 4 4 8 8 4 5 4 4 7 8 11 11 10 7 6 6 8 9 9 7 6 7 7 7 8 13 16 16 17 18 18 18 17 16 13 13 13 11 9 8 7 6 6 6 6 6 5 4 3 2 3 4 4 4 3 5 7 8 9 10 10 11 11 11 12 11 12 12 12 10 9 9 9 9 9 9 10 10 11 12 13 13 14 14 15 16 17 16 16
6 5 4 4 3 3 4 4 6 4 7 6 4 6 6 6 6 7 7 11 11 5 4 6 8 7 8 10 9 9 9 9 13 16 17 18 19 19 20 20 20 18 15 14 14 13 11 10 10 10 10 9 8 7 6 5 4 4 4 5 6 7 6 7 8 10 11 11 10 11 11 11 11 12 13 13 12 10 8 8 9 9 9 8 8 9 10 12 12 12 13 14 15 16 16 15 15
5 5 3 1 3 4 2 3 7 5 6 4 5 9 8 7 7 5 4 9 9 4 4 5 5 1 4 11 12 10 8 8 12 14 16 19 20 21 22 21 21 21 19 18 18 18 16 14 14 14 13 11 11 9 8 7 5 5 5 6 7 8 9 10 11 12 12 12 12 12 11 11 11 11 12 13 12 11 10 9 8 8 8 8 7 8 9 11 11 11 11 14 14 14 14 14 14
4 3 3 1 3 3 2 4 7 5 4 3 5 9 7 7 9 7 4 5 8 5 1 4 7 5 3 8 11 9 8 8 9 9 12 16 19 23 22 20 21 22 22 20 20 20 18 17 16 15 14 12 11 9 7 7 6 5 5 6 7 9 12 12 12 12 13 15 15 15 14 13 12 12 12 12 11 11 10 10 9 9 9 9 9 10 11 12 13 12 11 12 13 14 14 14 14
4 3 4 2 3 1 1 3 5 6 4 6 8 7 4 5 7 8 6 4 8 8 4 5 7 3 4 4 9 9 9 9 8 8 9 13 17 22 20 18 20 22 21 20 20 20 18 17 16 14 14 13 11 9 8 8 6 6 6 7 8 9 11 10 10 11 13 15 16 16 16 15 14 14 13 12 12 11 11 10 11 10 11 11 12 13 14 15 15 14 12 11 11 13 13 13 13
2 3 5 4 3 2 3 1 3 6 6 6 9 6 2 3 5 5 4 4 7 8 5 6 7 4 4 5 7 8 8 8 7 7 8 11 14 19 18 18 21 22 21 20 20 20 19 18 16 15 15 14 13 11 10 9 8 8 8 9 9 8 9 9 10 13 14 14 15 16 16 15 14 14 14 13 13 12 12 12 12 12 12 12 13 14 14 15 15 15 14 13 12 12 14 14 14
2 3 6 6 4 4 5 4 3 5 3 1 5 5 0 2 4 4 3 4 7 6 5 7 7 5 4 5 5 5 8 8 6 7 9 11 14 17 17 18 21 21 20 20 20 20 20 18 17 16 15 15 14 12 10 8 8 8 7 8 10 11 13 14 14 15 15 14 14 14 14 13 13 13 13 13 13 12 12 12 12 12 13 12 13 13 14 14 15 15 14 14 13 12 14 15 15
2 5 7 6 7 7 6 4 3 3 2 2 4 4 1 2 4 5 4 6 7 6 5 5 6 6 5 4 2 4 7 7 7 7 8 10 13 16 15 17 20 19 18 19 19 19 19 18 17 16 16 15 15 13 11 9 9 10 10 11 14 15 16 15 14 14 14 13 13 12 12 12 12 12 12 13 12 12 12 12 12 12 12 12 12 12 13 13 14 15 14 13 13 14 15 15 16
3 5 8 8 8 7 6 4 4 3 3 2 2 3 3 2 4 6 7 8 7 6 6 4 4 7 7 4 2 5 7 6 7 7 8 10 12 14 15 17 19 18 17 18 19 18 17 17 16 16 16 16 15 13 12 11 11 12 13 14 15 15 15 14 12 12 12 11 11 12 11 11 11 11 11 12 13 13 13 13 13 12 12 12 13 12 12 12 13 14 15 15 14 14 15 15 18
5 6 9 8 8 7 6 4 3 2 3 2 3 2 4 1 3 6 7 8 7 7 9 7 6 8 9 5 1 4 8 7 7 8 8 10 12 14 16 18 19 18 18 18 18 17 16 16 16 16 16 16 15 13 13 13 12 11 12 13 13 13 13 12 11 10 11 11 11 11 11 11 11 11 11 11 12 13 13 13 14 14 13 13 14 14 13 13 13 13 14 15 15 15 14 14 16
4 6 6 3 4 4 3 4 4 3 2 2 7 3 3 1 3 6 7 7 7 8 8 9 8 7 9 8 3 5 9 7 7 9 10 11 12 14 17 18 19 19 19 18 18 17 17 16 16 17 18 17 16 14 14 14 13 11 11 11 11 11 10 10 9 10 11 11 11 11 11 11 11 11 11 11 12 12 12 13 14 14 13 13 14 15 15 15 15 15 14 14 14 15 15 14 15
6 7 5 6 5 4 4 3 4 3 2 4 8 6 4 2 4 6 7 6 10 10 8 10 11 10 9 8 6 7 8 6 6 8 10 12 13 15 18 18 18 19 19 18 18 18 18 17 18 20 19 17 17 16 16 16 15 14 13 12 11 11 11 10 11 13 13 13 13 12 12 11 11 12 12 12 13 13 12 12 13 12 12 14 15 16 17 17 17 16 15 15 14 15 15 15 15
8 5 5 5 3 4 4 4 3 2 4 4 7 7 5 3 4 7 7 5 10 13 11 13 13 12 11 8 7 9 8 6 6 6 8 11 12 13 16 17 18 19 19 19 19 19 19 19 19 21 20 18 17 17 17 18 17 17 16 14 14 14 13 14 15 16 16 15 15 13 12 12 12 12 13 14 15 14 13 13 13 12 13 15 16 16 17 18 18 17 17 17 17 17 16 17 17
6 4 5 5 1 1 1 2 1 3 4 3 4 5 3 4 5 7 9 7 10 11 10 13 14 13 12 9 8 9 7 6 6 5 5 8 9 9 12 15 17 19 20 20 20 20 20 20 20 22 21 19 18 18 17 18 18 18 17 16 17 15 15 16 17 17 17 16 15 15 14 14 14 15 15 16 16 16 15 14 14 14 16 17 17 18 19 19 19 19 19 19 19 19 18 19 19
6 5 6 5 3 3 5 3 1 2 2 3 3 4 1 3 2 3 5 7 9 10 9 10 12 12 13 11 9 9 7 7 6 4 4 5 7 9 10 12 15 18 20 21 21 20 20 20 21 22 21 19 18 18 17 18 18 18 17 17 17 16 16 17 17 18 17 16 16 16 16 16 16 16 16 16 15 15 14 14 15 16 17 18 18 18 19 20 20 21 21 22 21 21 20 19 19
4 4 6 5 5 5 4 4 2 3 1 2 2 3 1 1 1 5 3 5 10 12 10 10 10 10 11 10 9 9 8 7 6 4 4 6 9 11 10 11 14 17 20 21 21 20 20 20 20 20 20 18 17 17 17 18 18 18 17 17 17 17 17 18 18 18 17 16 16 16 16 16 16 16 16 15 14 14 15 15 16 18 18 18 18 19 18 18 19 20 20 21 22 22 22 21 20
2 2 5 4 5 4 2 3 5 5 3 1 1 2 1 0 2 4 3 8 11 12 10 11 11 10 11 9 8 8 7 6 6 5 4 7 10 12 12 13 15 17 19 21 21 20 20 20 20 19 19 18 17 17 17 18 18 17 18 17 17 17 17 18 18 18 17 17 18 18 18 17 16 16 16 16 15 16 17 18 20 21 21 21 22 22 22 22 21 21 21 21 21 20 21 21 21
2 2 4 4 5 6 4 1 1 3 3 2 2 2 1 1 1 1 8 12 13 12 10 11 11 11 11 8 8 8 6 6 6 5 5 8 11 12 13 15 16 17 19 21 21 20 20 20 20 19 18 17 17 17 17 17 16 17 18 17 17 18 18 19 19 19 18 18 20 21 21 20 19 18 19 19 18 18 19 21 23 24 24 25 25 25 26 26 25 26 25 25 24 22 21 21 21
6 4 6 3 3 3 3 1 3 3 2 2 1 3 4 4 1 4 10 14 15 14 11 11 12 12 10 9 9 9 8 7 7 6 6 9 11 12 14 15 17 18 20 21 21 20 20 20 19 18 17 17 16 16 16 16 16 17 18 17 18 19 19 20 20 19 19 20 22 23 23 23 23 22 22 22 22 22 23 24 26 27 27 27 28 28 28 28 28 28 27 26 25 24 24 24 24
5 6 7 5 3 3 1 3 1 1 1 2 0 3 4 4 4 7 11 14 15 15 14 14 14 12 11 10 10 10 9 8 7 6 5 8 11 13 14 17 18 20 21 22 21 20 20 19 17 17 17 17 16 15 15 15 16 17 17 17 18 18 19 21 21 20 21 22 23 23 23 24 24 24 24 24 24 24 25 26 27 28 29 29 30 31 31 30 30 30 29 27 24 24 24 25 25
3 5 5 3 4 4 3 3 3 4 3 1 1 1 3 4 6 11 14 15 17 16 14 14 13 12 12 11 10 10 9 8 7 6 5 9 13 14 15 18 20 21 22 21 21 20 20 19 17 17 17 16 15 14 15 15 16 16 16 17 17 17 18 19 20 20 21 22 23 23 23 23 23 24 24 25 25 25 25 26 28 30 31 31 32 33 33 33 32 31 30 27 24 23 23 23 23
3 5 5 3 1 2 2 1 2 4 4 2 1 1 4 4 6 13 17 15 15 15 13 11 11 12 12 11 11 10 9 8 7 7 7 10 15 15 16 19 21 22 21 21 20 20 20 18 17 16 16 15 15 14 14 14 15 15 16 17 16 16 17 17 17 18 19 21 22 23 23 23 23 24 25 26 26 26 26 26 28 30 31 32 33 34 34 34 34 33 31 28 26 26 23 21 21
6 5 5 5 3 4 4 2 0 3 3 4 4 2 5 4 2 8 14 13 12 13 13 10 10 12 12 10 11 11 10 9 8 7 8 12 15 16 17 19 20 20 20 20 20 20 20 18 17 16 16 16 15 14 14 14 15 16 17 17 16 16 16 16 16 17 19 20 21 22 23 24 25 25 26 27 27 27 27 27 28 29 31 32 34 34 35 35 35 34 32 30 30 29 26 23 22
Wind_Direction
356 355 355 359 349 341 355 48 44 329 69 118 266 260 256 236 280 290 283 308 308 313 340 1 50 84 104 115 131 122 71 85 163 141 195 235 148 152 160 165 161 159 160 162 161 158 159 162 164 159 151 146 136 126 121 120 133 140 133 124 119 117 115 112 114 113 114 114 113 115 114 114 113 112 110 110 109 108 109 107 107 107 107 106 105 106 107 110 112 112 108 107 108 107 106 104 106
0 357 359 6 5 7 318 66 88 317 55 291 263 202 261 309 312 279 261 280 260 250 36 64 75 74 83 101 114 101 53 47 135 140 128 140 142 151 164 168 164 162 161 160 159 158 160 162 164 160 153 149 139 127 121 119 130 138 132 123 120 118 113 111 112 112 112 112 111 111 111 112 112 111 110 110 109 109 109 107 109 109 109 108 107 106 108 113 116 115 111 111 112 111 108 103 101
3 3 10 23 16 30 70 39 103 153 135 240 262 231 279 299 259 279 275 248 205 160 106 64 68 69 74 79 62 59 85 63 113 113 121 141 146 157 169 169 166 163 159 159 160 160 159 161 163 160 155 152 141 129 122 120 126 135 131 122 122 120 113 112 113 112 111 111 111 111 111 112 112 112 111 111 110 110 109 108 109 109 109 109 108 106 108 113 117 117 113 114 116 115 112 107 100
5 11 16 48 47 28 66 46 141 144 176 225 270 249 243 240 239 294 273 185 177 114 356 12 32 354 63 91 78 70 114 121 123 121 135 157 166 165 167 167 165 160 157 160 161 160 158 159 162 158 156 154 142 130 123 121 123 128 127 124 124 120 114 115 116 114 112 112 113 113 113 113 113 112 111 111 110 111 111 110 110 110 110 111 111 110 112 114 119 120 117 115 117 119 117 110 100
11 23 25 57 97 42 100 87 122 147 198 200 250 254 241 215 177 293 278 148 245 16 36 78 51 310 62 98 144 104 123 127 138 133 138 167 171 165 164 163 162 156 156 160 160 159 157 158 160 158 158 153 141 131 124 121 120 123 125 127 124 117 113 116 116 114 115 117 116 115 114 114 113 112 111 110 110 111 111 111 111 111 111 111 112 113 115 118 123 124 122 118 119 124 116 103 93
23 52 47 56 97 151 121 135 175 198 220 179 205 255 249 199 180 281 306 320 309 71 77 89 102 155 84 54 65 109 159 142 141 153 151 159 165 163 160 159 155 153 156 158 160 159 156 159 160 158 156 149 140 130 126 122 119 121 126 127 122 116 114 118 117 116 118 119 119 117 116 116 115 113 111 111 113 112 111 111 110 111 111 111 111 111 114 121 128 127 125 120 121 121 106 95 90
43 57 36 61 56 29 121 175 198 220 240 180 197 244 149 194 221 321 328 329 358 43 61 91 117 115 86 38 61 51 218 153 145 159 159 154 157 158 157 155 149 151 156 157 160 157 154 158 157 154 151 145 139 131 126 124 120 120 127 126 122 117 116 121 120 119 120 121 123 121 120 120 118 114 112 114 115 115 114 111 108 110 111 112 111 109 110 118 127 128 125 121 122 114 102 94 86
61 70 26 96 81 13 119 193 221 213 248 230 222 251 231 202 201 316 310 296 324 42 100 130 119 83 82 121 88 335 32 116 154 154 152 151 154 154 154 153 147 149 153 156 156 152 151 154 152 149 146 143 137 131 126 124 122 121 124 123 120 118 118 124 125 122 122 125 127 124 124 123 122 118 116 115 113 112 110 108 108 109 110 110 112 108 106 115 121 122 120 121 120 111 103 93 76
54 55 114 103 135 60 101 242 252 231 256 268 260 257 252 212 190 242 259 275 285 141 161 194 116 90 113 99 94 292 34 111 144 142 144 148 153 153 152 150 147 148 149 152 151 148 150 152 150 144 141 139 134 128 125 123 124 126 124 121 124 124 123 128 131 127 126 128 128 125 126 126 126 122 116 113 110 108 103 103 101 99 107 112 110 102 103 113 118 119 123 124 117 111 106 91 70
40 32 145 99 131 194 285 251 243 249 245 246 248 245 244 213 192 207 226 257 219 150 147 114 88 114 127 114 109 304 100 135 138 135 144 148 151 151 148 146 145 145 147 149 148 148 148 151 150 143 141 137 134 128 127 129 129 133 130 127 132 133 129 132 136 131 131 131 130 128 126 127 125 119 111 106 102 97 94 92 89 81 83 94 94 86 91 99 110 129 139 135 121 114 109 92 75
44 353 107 101 112 190 239 245 256 265 264 278 264 246 237 215 181 195 209 233 185 127 124 93 101 128 117 116 101 55 126 139 137 136 147 148 149 149 144 143 145 146 147 147 147 148 145 150 153 147 146 142 139 134 135 136 136 139 137 133 135 139 137 137 139 135 134 133 132 129 126 130 123 112 102 94 87 77 74 74 73 63 55 64 71 69 70 75 96 136 152 143 129 120 114 98 83
97 334 65 109 175 199 213 240 270 276 287 296 272 252 211 187 167 189 202 209 150 121 154 139 143 141 104 114 125 107 125 134 136 139 147 146 146 149 147 146 147 146 145 146 147 147 147 150 152 150 147 143 141 137 138 139 141 143 139 134 131 139 141 138 141 141 138 136 136 133 131 132 121 110 97 87 78 63 58 59 58 51 47 54 60 58 55 62 88 127 151 146 135 129 117 100 86
126 152 91 142 198 182 181 219 274 300 306 264 241 268 193 165 181 192 189 182 147 137 178 165 156 140 101 124 114 125 132 136 138 139 144 144 146 149 149 147 144 144 146 146 145 147 151 152 153 151 146 142 142 140 142 145 147 145 141 135 131 140 143 138 144 147 143 141 143 142 137 127 112 104 94 79 64 52 46 44 48 45 44 50 50 48 44 52 80 120 149 151 142 135 115 95 81
146 152 122 180 226 145 172 227 273 284 286 257 234 287 293 198 212 192 162 150 156 155 148 147 147 118 110 134 129 182 152 142 141 139 142 144 149 148 146 145 144 146 147 146 146 150 154 157 156 152 151 149 147 145 147 150 146 146 147 140 137 145 146 143 148 152 149 144 149 149 140 126 108 95 86 67 49 43 38 32 33 35 37 40 37 37 34 40 63 116 148 154 146 134 112 90 72
156 128 101 140 288 300 208 215 224 176 245 257 244 307 323 276 222 183 168 145 150 160 124 135 150 104 153 163 178 187 149 144 143 139 141 143 147 146 144 145 146 149 148 148 151 154 158 161 159 157 161 156 152 150 149 151 150 148 146 142 144 147 146 150 153 156 157 151 152 153 146 137 119 101 85 54 40 34 33 30 24 21 28 34 27 27 26 28 44 106 148 156 149 136 117 93 73
137 100 77 114 229 229 217 206 171 162 253 252 260 334 349 330 36 164 200 132 129 139 105 145 218 119 163 172 161 149 142 144 141 139 141 140 143 144 145 146 148 149 149 152 154 158 162 163 161 163 163 158 156 152 149 149 150 146 142 146 149 146 149 160 160 159 162 157 154 155 154 152 140 125 105 36 29 18 20 26 28 22 18 27 28 25 21 20 30 78 151 161 154 142 126 99 76
84 85 89 207 206 198 205 196 176 192 266 269 305 350 0 339 1 88 53 91 124 124 61 79 358 67 138 129 126 135 140 142 139 138 139 140 142 143 145 147 148 148 150 155 157 160 164 165 166 165 159 157 155 147 142 141 145 147 146 150 147 148 152 161 166 164 165 163 160 160 156 163 161 128 68 13 1 348 7 17 22 30 19 21 27 25 19 16 21 46 153 165 158 147 133 109 85
83 100 152 208 193 197 188 184 198 205 275 284 315 333 317 1 9 88 66 72 98 96 67 66 50 55 94 107 122 133 138 140 140 140 141 146 146 145 148 148 148 148 151 154 158 164 166 168 168 162 156 155 148 139 137 137 146 150 149 149 144 149 150 152 166 171 175 174 174 178 180 196 226 312 321 348 320 322 9 24 5 19 23 12 20 21 16 15 16 27 156 169 161 152 138 117 96
136 123 168 221 199 209 196 191 221 225 268 291 307 308 250 158 147 120 102 118 113 102 89 85 86 87 99 110 124 133 137 140 145 146 149 153 152 153 152 151 149 146 151 155 160 168 170 170 168 160 156 151 144 139 138 139 146 150 149 148 146 149 149 151 163 173 182 180 180 187 198 230 328 26 47 43 16 356 27 39 359 354 352 340 358 9 8 14 16 20 159 171 163 158 148 125 106
177 140 192 243 215 228 231 215 235 238 263 292 293 300 191 167 142 76 123 133 131 132 140 132 128 125 123 124 129 136 139 143 150 152 155 157 157 157 154 154 150 148 154 159 164 170 170 170 167 158 151 146 144 143 144 145 148 152 150 149 151 153 153 156 162 170 173 172 173 172 180 159 31 49 56 39 30 40 41 34 351 333 327 312 319 341 354 5 14 19 153 173 167 164 158 134 114
181 161 195 238 203 235 252 230 241 249 251 257 285 339 138 177 96 122 135 127 157 194 182 163 153 146 138 137 136 140 143 148 156 156 155 155 151 149 153 156 153 155 158 158 163 167 168 171 166 156 149 147 149 151 151 152 154 156 153 151 155 158 162 166 168 162 152 155 154 150 151 105 49 23 9 1 6 20 22 16 356 334 310 290 291 302 328 348 7 18 140 175 172 166 166 154 126
168 210 204 229 199 233 258 232 231 241 262 286 309 353 210 187 94 142 143 145 212 210 201 164 150 149 144 143 142 146 147 151 156 153 149 148 147 146 150 154 154 158 158 156 160 164 170 172 165 157 153 151 153 158 155 152 159 161 157 157 161 165 171 179 180 161 146 147 145 149 153 135 41 356 345 344 347 342 342 345 345 339 316 289 277 276 293 314 345 16 127 177 177 171 173 181 158
207 262 237 241 225 233 260 242 241 345 19 310 298 320 189 101 117 152 9 271 231 108 113 95 128 145 140 138 143 149 148 148 152 148 146 146 151 154 154 154 153 157 159 160 163 165 170 172 169 161 157 157 157 162 158 155 161 163 159 163 171 174 180 189 188 169 158 156 156 177 185 223 311 330 332 336 336 332 332 327 327 334 333 317 291 272 270 283 299 349 151 180 183 180 183 197 215
200 249 280 258 227 231 254 268 290 15 293 275 280 101 153 131 139 126 7 334 92 89 98 105 126 137 133 135 142 145 139 138 141 138 142 146 149 153 154 153 153 159 161 163 165 166 169 169 167 160 158 159 162 168 165 160 161 162 163 166 175 181 193 202 204 203 209 211 226 264 298 309 312 315 319 325 326 327 326 320 318 321 330 335 318 289 270 270 279 288 222 192 193 192 195 206 234
192 221 263 269 240 241 257 270 277 263 231 259 334 69 117 125 117 78 11 65 98 105 114 121 133 137 136 139 138 137 134 126 123 123 130 140 145 147 149 150 152 157 156 158 161 162 165 161 156 155 153 152 162 171 170 170 169 172 171 169 179 187 195 210 227 255 269 269 277 288 304 312 312 314 316 318 320 321 320 316 315 313 317 325 329 319 291 276 277 280 271 228 212 211 217 225 247
211 209 240 256 271 271 276 275 260 202 224 228 62 81 111 114 93 62 336 105 117 122 126 131 138 143 144 140 136 133 128 123 123 124 127 137 145 146 148 149 151 152 149 152 156 158 160 157 155 154 144 140 151 161 167 179 183 186 179 173 187 191 196 224 247 290 303 296 300 304 310 315 315 316 316 316 315 312 310 309 309 309 309 313 321 327 319 298 289 285 284 277 257 245 247 257 271
199 202 249 245 263 282 267 271 269 140 223 207 123 117 134 13 64 115 288 103 129 133 133 141 146 148 142 130 130 123 117 124 127 126 126 136 144 148 152 150 149 149 145 145 152 158 160 159 158 152 144 142 143 142 155 182 201 217 216 205 221 258 277 288 304 312 314 314 316 314 317 318 318 318 317 317 316 312 308 303 306 308 306 309 314 316 320 315 307 297 291 287 281 273 268 274 287
188 197 283 277 286 294 247 265 270 160 229 210 135 123 28 355 52 150 166 144 138 142 143 148 149 147 138 126 121 112 110 119 124 127 130 137 144 148 154 154 150 149 146 144 152 158 159 161 160 155 157 161 156 139 143 190 233 253 262 275 293 301 304 316 325 327 324 321 318 318 319 319 319 319 318 318 317 314 310 304 304 306 307 311 311 308 307 307 307 305 298 291 285 281 276 276 286
216 166 301 301 345 328 252 251 244 170 184 197 135 88 343 350 125 153 147 134 132 139 146 154 154 141 131 125 116 107 106 109 116 124 127 134 144 148 152 157 155 150 147 145 149 155 160 165 165 165 170 178 182 177 188 256 280 281 285 295 302 297 300 310 322 330 328 326 323 323 323 323 323 319 317 316 314 314 313 310 308 309 312 311 307 303 300 299 299 299 298 295 289 285 282 280 284
264 61 80 313 1 329 266 219 156 138 175 195 142 99 272 319 140 155 146 140 136 132 134 144 126 77 62 107 109 100 97 99 107 117 126 136 145 149 150 158 158 153 153 152 154 158 167 175 174 169 162 171 191 204 236 308 310 300 301 302 302 300 303 309 321 330 332 336 333 333 333 331 330 328 324 317 310 311 310 310 309 310 314 311 308 310 308 302 297 295 295 293 292 290 288 288 289
244 324 46 2 22 275 283 275 134 123 199 193 112 111 241 271 155 158 160 160 147 135 123 80 45 30 350 18 93 90 88 89 96 109 123 135 144 148 148 155 158 157 161 164 167 168 173 181 176 163 153 167 188 197 247 315 310 310 313 308 304 302 304 312 325 333 332 332 331 339 340 334 337 342 341 331 319 315 313 312 310 309 311 309 311 316 317 314 307 300 297 295 293 292 291 291 293
38 153 304 340 181 264 303 264 156 140 232 145 111 120 244 193 177 165 164 174 150 131 118 95 79 31 332 357 79 85 86 86 91 101 112 126 139 142 141 148 152 155 162 164 168 168 170 175 166 155 149 157 143 60 315 296 300 301 303 302 300 296 304 318 324 328 328 328 335 342 339 338 346 353 353 347 338 329 325 325 323 319 315 313 314 314 315 317 316 309 304 300 296 295 294 293 293
357 126 221 261 184 266 315 275 157 132 122 36 92 142 159 182 175 165 163 166 133 110 95 100 119 121 348 351 82 89 87 89 91 96 104 115 126 132 136 143 147 149 153 152 155 160 161 159 147 130 114 89 66 63 102 215 227 238 275 298 315 313 319 328 323 328 335 335 342 345 346 353 357 355 355 355 354 346 335 331 329 327 321 319 317 313 314 316 316 313 311 310 304 302 301 297 297
304 70 156 235 199 205 295 282 17 75 98 42 38 135 176 202 159 161 163 154 119 103 107 122 147 135 105 35 89 95 97 100 102 100 101 106 114 124 131 139 145 146 148 151 154 157 154 146 139 130 121 106 96 90 88 100 120 126 83 326 334 337 334 339 339 345 348 345 350 357 1 6 6 2 2 8 16 11 355 340 332 330 326 324 322 318 319 318 316 317 318 319 315 310 305 303 303
173 143 139 227 223 197 257 264 287 38 70 58 56 146 183 162 135 111 74 95 92 106 127 145 153 132 125 125 107 109 104 99 106 103 100 102 106 113 119 125 134 137 141 146 147 147 145 142 143 138 135 131 113 97 93 97 96 74 349 327 326 332 329 344 358 1 4 2 5 11 11 12 10 9 13 19 28 29 23 12 2 358 349 343 339 334 333 330 327 326 324 325 323 316 311 309 304
161 165 146 162 192 224 246 262 298 47 76 51 51 147 131 105 105 60 52 67 76 101 129 150 152 142 139 140 128 115 106 103 108 105 104 105 103 106 110 112 117 123 126 127 130 138 137 137 142 125 116 125 120 110 112 103 79 48 355 347 353 359 0 12 22 24 28 30 32 30 26 20 16 16 18 22 29 30 21 12 5 1 353 346 342 340 338 335 330 322 319 321 319 315 312 311 309
133 122 117 154 185 255 272 302 334 38 85 35 33 99 71 62 72 62 76 81 84 119 169 153 143 144 143 133 121 112 110 109 101 96 98 102 103 103 103 104 107 111 114 115 117 119 118 122 126 115 113 123 121 114 109 96 78 64 48 45 43 38 37 38 39 39 41 45 47 44 37 30 26 28 31 35 40 38 26 17 8 0 353 345 338 333 329 328 325 318 316 318 317 314 313 316 319
95 114 113 153 211 250 281 351 342 10 80 57 61 79 60 52 67 63 72 87 96 140 192 141 95 26 146 122 113 109 106 100 93 88 90 95 100 100 99 100 102 102 106 110 109 110 114 117 118 114 114 120 115 110 108 98 87 76 68 64 60 56 53 49 46 43 46 50 49 48 43 37 35 38 44 46 46 42 36 30 20 9 1 352 342 336 334 334 333 331 330 327 326 321 317 324 325
94 107 118 188 245 255 295 358 358 13 79 110 89 80 65 53 68 67 44 84 101 89 22 86 75 351 304 115 110 106 102 96 90 87 90 94 97 98 96 95 98 100 103 106 108 111 114 115 115 114 114 115 111 107 102 90 83 85 81 73 72 73 68 61 56 54 54 54 52 49 46 43 42 45 48 48 45 42 38 35 28 21 13 5 358 352 351 350 346 343 336 331 330 323 316 321 325
116 122 131 224 265 183 240 345 16 37 79 127 104 82 73 61 73 71 46 60 96 97 62 46 76 19 311 104 102 101 102 98 97 95 93 93 94 95 95 93 96 99 100 101 105 107 107 106 107 107 105 103 100 92 84 78 78 87 90 88 88 88 84 74 61 56 54 50 46 45 44 42 42 43 44 43 41 40 38 35 30 25 19 12 4 360 357 355 352 347 342 339 336 325 317 316 318
187 171 156 208 245 158 148 107 47 53 63 113 104 81 50 63 87 86 59 58 87 110 107 53 52 22 352 59 77 93 99 92 96 99 97 93 90 92 94 95 95 95 94 94 99 100 98 96 95 95 93 91 90 86 81 79 78 87 91 91 92 88 78 61 47 46 46 43 42 44 43 37 35 39 39 37 36 35 34 30 24 19 16 9 4 1 357 354 351 349 347 346 342 331 320 311 306
220 224 190 186 163 126 107 99 73 59 41 221 104 89 21 76 104 113 94 84 89 104 111 86 61 30 30 56 56 83 90 90 88 87 98 95 90 92 91 91 91 89 89 92 96 97 95 94 91 90 87 86 87 85 81 74 71 74 69 66 71 70 63 56 51 50 48 48 49 49 44 36 36 38 38 35 32 31 31 26 18 13 10 9 9 5 359 355 348 343 344 341 339 335 322 306 300
198 232 190 157 121 118 128 118 85 93 205 224 104 112 148 143 143 141 121 100 98 99 97 94 78 64 62 52 51 94 88 89 87 78 87 89 89 91 87 85 88 87 90 95 97 96 95 94 91 89 87 84 84 83 79 71 70 71 68 70 71 69 67 63 59 56 53 53 53 50 42 37 38 37 37 37 34 33 32 26 18 12 10 13 13 7 2 359 349 343 343 338 333 332 322 307 303
215 231 166 141 123 136 159 127 97 156 167 63 84 129 111 149 167 146 131 110 107 121 119 111 102 100 88 48 21 109 101 93 92 85 77 77 83 89 89 88 89 91 93 96 97 95 94 93 91 89 87 83 81 81 80 77 76 75 72 72 68 65 65 62 54 50 48 46 45 44 40 37 36 33 33 34 34 34 29 24 20 13 11 12 11 8 5 2 354 346 344 340 334 331 326 316 309
227 206 165 159 147 151 162 130 102 133 108 57 254 160 95 156 152 139 145 129 137 165 161 151 139 130 115 98 22 95 98 96 96 96 85 79 82 87 91 92 93 96 95 95 97 98 97 95 93 90 85 82 80 80 81 80 79 74 67 63 63 63 60 55 46 38 35 32 30 31 31 30 29 27 26 26 27 28 23 17 14 9 8 10 9 8 4 2 360 352 346 342 337 334 331 325 318
210 158 136 105 92 104 119 124 103 64 65 202 218 178 101 165 164 152 162 164 174 178 169 155 140 134 118 115 136 96 91 98 97 96 90 87 89 91 92 92 94 98 97 97 97 98 99 96 94 89 84 83 82 82 82 80 77 72 65 59 57 56 53 48 40 33 29 24 20 19 19 19 19 18 19 19 18 19 16 9 5 3 3 5 4 1 357 357 356 351 346 343 342 341 338 335 330
130 122 92 58 43 42 51 61 79 77 295 224 193 176 129 160 192 174 179 188 180 165 156 156 142 132 122 122 136 109 96 106 99 95 97 95 95 94 94 92 93 97 99 98 95 95 95 94 94 90 86 84 82 80 79 78 75 71 68 63 58 56 55 51 44 40 36 31 29 26 21 18 16 15 13 12 11 11 9 7 3 358 356 358 358 356 356 356 353 347 344 344 345 345 340 337 333
125 122 106 92 23 14 32 5 38 147 254 259 195 170 141 186 212 194 199 192 172 168 161 155 146 134 130 131 129 111 107 113 99 100 107 100 95 91 91 92 94 98 98 95 94 93 92 94 95 90 84 81 80 79 78 76 73 71 69 68 67 65 62 58 54 51 45 42 41 35 30 25 20 17 13 10 10 8 5 5 3 356 354 356 355 353 352 351 349 346 345 345 344 343 339 338 336
136 130 121 117 82 356 188 267 274 199 238 286 210 159 148 239 237 205 200 179 165 168 156 147 143 134 132 132 122 115 120 118 102 103 106 101 99 88 86 93 97 100 101 99 96 93 91 91 91 88 82 80 81 79 77 75 73 71 70 70 70 68 65 63 60 56 52 48 44 40 36 32 26 23 19 17 15 11 9 10 11 7 3 0 355 351 347 345 344 343 343 342 340 340 338 337 335
156 152 148 145 141 167 210 232 288 229 241 298 228 173 222 262 273 264 215 172 146 134 127 133 133 131 131 129 125 123 123 115 104 104 99 99 98 87 85 94 99 104 107 105 101 96 93 90 88 87 84 82 82 79 78 77 75 74 72 71 69 67 65 63 60 57 54 51 47 46 43 39 36 32 27 23 19 16 18 21 22 17 11 5 358 351 346 343 341 338 337 336 334 334 332 332 332
164 146 135 149 161 163 202 213 184 194 206 331 229 180 220 213 255 299 271 140 121 116 120 120 117 122 122 122 127 122 117 116 111 105 95 90 90 88 90 94 99 105 107 106 103 101 98 93 91 89 86 84 82 81 80 79 78 76 73 70 67 66 65 62 60 57 54 52 51 50 49 45 43 39 33 31 28 28 31 32 30 24 19 17 13 8 2 358 352 345 339 334 328 324 323 322 322
208 131 116 168 187 142 119 187 171 163 143 65 174 178 269 281 299 292 154 127 119 119 124 120 120 126 123 125 130 118 116 122 114 105 94 90 95 97 99 101 103 106 106 105 106 105 102 98 95 91 88 87 83 82 81 80 79 75 70 69 67 65 63 60 59 57 56 56 55 53 52 49 46 44 40 37 38 41 43 41 37 33 31 30 27 24 21 17 12 7 1 354 345 335 328 324 321
165 159 166 189 163 117 101 208 95 98 138 174 141 130 146 116 330 222 143 133 132 132 131 128 129 132 128 129 132 123 126 125 110 109 111 108 110 110 109 109 107 107 107 106 106 106 105 103 99 95 91 88 85 83 82 79 77 74 70 70 67 64 62 59 60 60 60 59 56 54 52 50 50 49 46 45 45 48 48 44 38 33 33 32 29 26 23 19 17 15 12 9 5 358 350 344 338
136 188 191 138 98 100 106 141 14 50 170 224 111 143 168 153 188 188 147 140 144 142 138 135 135 137 136 137 140 136 134 126 112 113 120 119 115 108 104 104 105 107 107 106 106 106 106 104 101 98 93 89 87 83 81 77 74 74 73 72 71 67 64 62 62 62 62 59 55 53 52 52 53 54 53 51 48 48 45 40 36 33 32 31 28 26 22 19 17 15 13 11 10 7 2 358 355
137 175 176 134 163 217 130 143 172 135 202 282 292 171 192 183 181 173 155 151 154 148 144 146 146 147 144 142 144 139 131 126 120 122 128 117 105 95 97 102 105 108 107 107 108 108 107 104 101 99 96 93 91 86 83 78 74 76 78 77 76 71 67 63 62 62 61 57 53 52 53 54 54 54 53 51 48 45 41 37 35 33 31 31 28 25 22 19 17 14 12 11 9 5 1 359 359
73 129 167 163 181 192 160 148 164 155 169 262 301 172 217 208 179 171 168 164 161 156 153 155 153 149 146 145 146 140 136 135 132 136 134 109 98 97 105 110 111 112 112 113 113 111 109 106 104 104 101 98 94 88 84 80 78 80 81 80 78 75 70 65 62 63 61 57 53 53 55 55 53 51 50 49 47 44 40 37 34 31 30 29 27 24 22 19 17 14 12 9 5 360 355 352 352
132 141 177 192 141 128 144 137 107 128 151 175 174 245 252 231 180 175 174 170 166 161 153 147 146 145 144 145 146 141 138 140 138 138 126 106 103 107 114 116 117 118 117 116 115 113 112 111 109 107 104 100 94 89 86 82 81 81 80 80 77 74 72 67 64 65 64 59 55 54 55 55 54 52 50 48 46 43 40 36 34 31 29 27 25 23 20 18 16 14 13 10 6 1 355 347 345
162 161 179 178 145 114 143 217 258 102 129 163 162 222 261 264 218 182 172 164 163 158 145 134 137 143 143 146 148 142 139 141 139 132 119 113 114 118 121 120 119 119 117 116 116 115 115 112 111 110 107 103 97 92 89 86 85 84 81 80 77 74 73 69 67 67 64 61 57 55 56 57 56 54 52 49 46 43 41 38 34 31 28 26 25 22 20 18 16 14 12 11 7 4 358 350 346